Kalaeloa, HI

11:26 PM HST on July 22, 2017 (GMT -1000)
Kalaeloa (John Rodgers Field)

Weather History for PHJR - March, 2013

Change the Weather History Date:

Friday, March 1, 2013

  Actual Average (PHHI) Record (PHHI)
Temperature  
Mean Temperature 74 °F -  
Max Temperature 80 °F 74 °F 80 °F (1999)
Min Temperature 69 °F 61 °F 57 °F (2005)
Cooling Degree Days 10    
Growing Degree Days 24 (Base 50)    
Moisture  
Dew Point 56 °F    
Average Humidity 56    
Maximum Humidity 68    
Minimum Humidity 42    
Precipitation  
Precipitation 0.00 in - - ()
Sea Level Pressure  
Sea Level Pressure 30.17 in    
Wind  
Wind Speed 7 mph (ENE)    
Max Wind Speed 14 mph    
Max Gust Speed 24 mph    
Visibility 10 miles    
Events Rain    
Averages and records for this station are not official NWS values.
T = Trace of Precipitation, MM = Missing Value Source: NWS Daily Summary

Daily Weather History Graph

Daily Weather History Graph

Search for Another Location

Airport or City:

Trip Planner

Search our weather history database for the weather conditions in past years. The results will help you decide how hot, cold, wet, or windy it might be!

Date:

Astronomy

Mar. 01, 2013 Rise Set
Actual Time 6:52 AM HST 6:36 PM HST
Civil Twilight 6:30 AM HST 6:59 PM HST
Nautical Twilight 6:04 AM HST 7:24 PM HST
Astronomical Twilight 5:38 AM HST 7:50 PM HST
Moon 10:40 PM HST (3/1) 9:24 AM HST (3/1)
Length of Visible Light 12h 29m
Length of Day
11h 44m
Waning Gibbous, 81% of the Moon is Illuminated
Mar 1
Waning Gibbous
Mar 4
Last Quarter
Mar 11
New
Mar 19
First Quarter
Mar 26
Full

Hourly Weather History & Observations

Time (HST) Temp. Heat Index Dew Point Humidity Pressure Visibility Wind Dir Wind Speed Gust Speed Precip Events Conditions
12:53 AM 70.0 °F - 59.0 °F 68% 30.23 in 10.0 mi Variable 4.6 mph - 0.00 in Rain Light Rain
1:53 AM 70.0 °F - 57.0 °F 63% 30.20 in 10.0 mi ENE 3.5 mph - 0.00 in   Clear
2:53 AM 69.1 °F - 55.0 °F 61% 30.18 in 10.0 mi East 5.8 mph - N/A   Partly Cloudy
3:53 AM 69.1 °F - 55.9 °F 63% 30.16 in 10.0 mi ENE 3.5 mph - N/A   Mostly Cloudy
4:53 AM 71.1 °F - 55.9 °F 59% 30.14 in 10.0 mi East 6.9 mph 20.7 mph N/A   Scattered Clouds
5:33 AM 69.8 °F - 55.4 °F 60% 30.13 in 10.0 mi ENE 5.8 mph - N/A   Scattered Clouds
5:53 AM 69.1 °F - 55.0 °F 61% 30.15 in 10.0 mi ENE 8.1 mph - N/A   Partly Cloudy
6:53 AM 70.0 °F - 53.1 °F 55% 30.16 in 10.0 mi ENE 8.1 mph - N/A   Clear
7:53 AM 72.0 °F - 53.1 °F 51% 30.18 in 10.0 mi ENE 8.1 mph - N/A   Clear
8:53 AM 75.0 °F - 55.9 °F 51% 30.19 in 10.0 mi ENE 8.1 mph - N/A   Clear
9:53 AM 77.0 °F - 57.0 °F 50% 30.20 in 10.0 mi Variable 6.9 mph 18.4 mph N/A   Scattered Clouds
10:53 AM 75.9 °F - 57.0 °F 52% 30.21 in 10.0 mi ENE 13.8 mph 24.2 mph N/A   Scattered Clouds
11:53 AM 78.1 °F - 55.9 °F 46% 30.19 in 10.0 mi ENE 10.4 mph 23.0 mph N/A   Partly Cloudy
12:53 PM 79.0 °F - 55.9 °F 45% 30.17 in 10.0 mi ENE 9.2 mph 18.4 mph N/A   Scattered Clouds
1:53 PM 80.1 °F 80.1 °F 55.0 °F 42% 30.15 in 10.0 mi ENE 13.8 mph 21.9 mph N/A   Clear
2:53 PM 77.0 °F - 53.1 °F 43% 30.14 in 10.0 mi ENE 11.5 mph 21.9 mph N/A   Scattered Clouds
3:53 PM 77.0 °F - 55.0 °F 47% 30.12 in 10.0 mi ENE 11.5 mph 23.0 mph N/A   Scattered Clouds
4:53 PM 75.9 °F - 55.9 °F 50% 30.11 in 10.0 mi ENE 13.8 mph 24.2 mph N/A   Clear
5:53 PM 73.9 °F - 57.9 °F 57% 30.12 in 10.0 mi ENE 10.4 mph 19.6 mph N/A   Clear
6:53 PM 72.0 °F - 57.9 °F 61% 30.14 in 10.0 mi ENE 6.9 mph - N/A   Clear
7:53 PM 71.1 °F - 55.9 °F 59% 30.15 in 10.0 mi Variable 5.8 mph - N/A   Clear
8:53 PM 70.0 °F - 55.9 °F 61% 30.16 in 10.0 mi Variable 4.6 mph - N/A   Clear
9:53 PM 71.1 °F - 57.0 °F 61% 30.18 in 10.0 mi Variable 6.9 mph - N/A   Partly Cloudy
10:53 PM 71.1 °F - 55.9 °F 59% 30.19 in 10.0 mi East 8.1 mph - N/A   Partly Cloudy
11:53 PM 70.0 °F - 57.0 °F 63% 30.19 in 10.0 mi East 5.8 mph - N/A   Partly Cloudy